Weather History for Jackson Hawkins Field, MS

Change the Weather History Date:

Monday, November 12, 2012

  Actual Average (KJAN) Record (KJAN)
Temperature  
Mean Temperature 52 °F 57 °F  
Max Temperature 66 °F 69 °F 85 °F (1985)
Min Temperature 39 °F 45 °F 24 °F (1900)
Degree Days  
Heating Degree Days 12 9  
Month to date heating degree days 91  
Since 1 July heating degree days 198  
Cooling Degree Days 0 1  
Month to date cooling degree days 13  
Year to date cooling degree days 2244  
Growing Degree Days 2 (Base 50)    
Moisture  
Dew Point 49 °F    
Average Humidity 84    
Maximum Humidity 100    
Minimum Humidity 47    
Precipitation  
Precipitation 1.13 in 0.15 in 1.98 in (1929)
Month to date precipitation 1.68  
Year to date precipitation 45.91  
Sea Level Pressure  
Sea Level Pressure 30.27 in    
Wind  
Wind Speed 8 mph (NNW)    
Max Wind Speed 16 mph    
Max Gust Speed 30 mph    
Visibility 7 miles    
Events Rain    
T = Trace of Precipitation, MM = Missing Value Source: NWS Daily Summary

Daily Weather History Graph

Daily Weather History Graph

Search for Another Location

Airport:

Trip Planner

Search our weather history database for the weather conditions in past years. The results will help you decide how hot, cold, wet, or windy it might be!

Date:

Astronomy

Nov. 12, 2012 Rise Set
Actual Time 6:27 AM CST 5:01 PM CST
Civil Twilight 6:02 AM CST 5:27 PM CST
Nautical Twilight 5:32 AM CST 5:57 PM CST
Astronomical Twilight 5:03 AM CST 6:26 PM CST
Moon 4:56 AM CST (11/12) 4:05 PM CST (11/12)
Length of Visible Light 11h 25m
Length of Day
10h 33m
Waning Crescent, 2% of the Moon is Illuminated
Nov 12
Waning Crescent
Nov 13
New
Nov 20
First Quarter
Nov 28
Full
Dec 6
Last Quarter

Hourly Weather History & Observations

Time (CST) Temp. Windchill Dew Point Humidity Pressure Visibility Wind Dir Wind Speed Gust Speed Precip Events Conditions
12:13 AM 66.2 °F - 64.4 °F 94% 30.08 in 2.0 mi South 8.1 mph - 0.13 in Rain Rain
12:28 AM 66.2 °F - 64.4 °F 94% 30.10 in 0.8 mi West 9.2 mph - 0.28 in Rain Heavy Rain
12:41 AM 66.2 °F - 64.4 °F 94% 30.09 in 1.5 mi WSW 8.1 mph - 0.37 in Rain Heavy Rain
12:53 AM 66.0 °F - 64.0 °F 93% 30.07 in 1.5 mi SW 4.6 mph - 0.45 in Rain Heavy Rain
1:05 AM 64.4 °F - 64.4 °F 100% 30.07 in 1.8 mi SSE 5.8 mph - 0.07 in Rain Heavy Rain
1:29 AM 64.4 °F - 64.4 °F 100% 30.08 in 1.8 mi Calm Calm - 0.19 in Rain Heavy Rain
1:44 AM 66.2 °F - 64.4 °F 94% 30.09 in 1.2 mi WNW 8.1 mph - 0.30 in Rain Heavy Rain
1:53 AM 60.1 °F - 57.9 °F 93% 30.09 in 1.2 mi NW 16.1 mph 29.9 mph 0.40 in Rain Heavy Rain
2:12 AM 55.4 °F - 53.6 °F 94% 30.14 in 2.5 mi NNW 16.1 mph 28.8 mph 0.12 in Rain Rain
2:22 AM 55.4 °F - 53.6 °F 94% 30.14 in 3.0 mi NNW 16.1 mph 29.9 mph 0.14 in Rain Rain
2:28 AM 53.6 °F - 51.8 °F 94% 30.15 in 3.0 mi NNW 13.8 mph 24.2 mph 0.14 in Rain Light Rain
2:53 AM 54.0 °F - 52.0 °F 93% 30.14 in 5.0 mi NNW 10.4 mph - 0.16 in Rain Light Rain
3:19 AM 53.6 °F - 51.8 °F 94% 30.17 in 2.5 mi NW 8.1 mph 18.4 mph 0.05 in Rain Rain
3:37 AM 53.6 °F - 51.8 °F 94% 30.18 in 2.5 mi NW 6.9 mph 18.4 mph 0.09 in Rain Light Rain
3:53 AM 53.1 °F - 51.1 °F 93% 30.17 in 4.0 mi Variable 3.5 mph - 0.11 in Rain Light Rain
3:58 AM 53.6 °F - 51.8 °F 94% 30.19 in 6.0 mi Variable 3.5 mph - 0.00 in Rain Light Rain
4:53 AM 52.0 °F - 50.0 °F 93% 30.18 in 10.0 mi NNW 5.8 mph - 0.00 in   Overcast
5:53 AM 52.0 °F - 50.0 °F 93% 30.22 in 10.0 mi NW 4.6 mph - N/A   Overcast
6:53 AM 52.0 °F - 50.0 °F 93% 30.25 in 10.0 mi NNW 3.5 mph - N/A   Overcast
7:53 AM 53.1 °F - 50.0 °F 89% 30.28 in 10.0 mi NW 6.9 mph - N/A   Overcast
8:43 AM 53.6 °F - 51.8 °F 94% 30.32 in 10.0 mi NW 4.6 mph - 0.00 in   Overcast
8:53 AM 54.0 °F - 50.0 °F 86% 30.30 in 10.0 mi NW 8.1 mph - 0.00 in Rain Light Rain
9:14 AM 53.6 °F - 51.8 °F 94% 30.33 in 10.0 mi NW 6.9 mph - 0.00 in   Overcast
9:53 AM 55.0 °F - 51.1 °F 86% 30.32 in 10.0 mi NNW 6.9 mph - 0.01 in   Overcast
10:32 AM 57.2 °F - 51.8 °F 82% 30.34 in 10.0 mi NW 9.2 mph - N/A   Overcast
10:53 AM 55.9 °F - 48.9 °F 77% 30.34 in 10.0 mi NNW 12.7 mph 21.9 mph N/A   Overcast
11:10 AM 53.6 °F - 48.2 °F 82% 30.37 in 10.0 mi North 8.1 mph 18.4 mph N/A   Overcast
11:14 AM 53.6 °F - 48.2 °F 82% 30.37 in 10.0 mi NNW 10.4 mph 18.4 mph N/A   Overcast
11:53 AM 52.0 °F - 48.0 °F 86% 30.35 in 10.0 mi North 10.4 mph 19.6 mph N/A   Overcast
12:29 PM 51.8 °F - 46.4 °F 82% 30.35 in 10.0 mi North 10.4 mph 16.1 mph 0.00 in   Overcast
12:35 PM 51.8 °F - 46.4 °F 82% 30.36 in 10.0 mi NNW 10.4 mph 17.3 mph 0.00 in   Overcast
12:53 PM 52.0 °F - 45.0 °F 77% 30.35 in 10.0 mi NNW 9.2 mph - 0.00 in   Overcast
1:12 PM 51.8 °F - 46.4 °F 82% 30.36 in 10.0 mi Variable 4.6 mph - N/A   Overcast
1:53 PM 51.1 °F - 44.1 °F 77% 30.34 in 10.0 mi North 8.1 mph - N/A   Mostly Cloudy
2:10 PM 53.6 °F - 42.8 °F 67% 30.36 in 10.0 mi NNW 9.2 mph 18.4 mph N/A   Scattered Clouds
2:53 PM 55.0 °F - 41.0 °F 59% 30.34 in 10.0 mi North 10.4 mph - N/A   Clear
3:53 PM 55.0 °F - 35.1 °F 47% 30.35 in 10.0 mi NNW 5.8 mph - N/A   Clear
4:53 PM 52.0 °F - 35.1 °F 53% 30.37 in 10.0 mi NNW 5.8 mph - N/A   Clear
5:53 PM 48.0 °F - 36.0 °F 63% 30.40 in 10.0 mi NNW 4.6 mph - N/A   Clear
6:53 PM 46.0 °F 43.9 °F 37.0 °F 71% 30.42 in 10.0 mi NNW 4.6 mph - N/A   Clear
7:53 PM 44.1 °F - 37.0 °F 76% 30.42 in 10.0 mi Calm Calm - N/A   Clear
8:53 PM 43.0 °F 41.3 °F 35.1 °F 74% 30.43 in 10.0 mi North 3.5 mph - N/A   Clear
9:53 PM 41.0 °F - 34.0 °F 76% 30.43 in 10.0 mi Calm Calm - N/A   Clear
10:53 PM 39.9 °F - 33.1 °F 77% 30.43 in 10.0 mi Calm Calm - N/A   Clear
11:53 PM 39.0 °F - 33.1 °F 79% 30.43 in 10.0 mi Calm Calm - N/A   Clear